Portada
METAR-TAF:

METAR-TAF

Aeropuertos :

Aeropuerto Almirante Padilla

Riohacha, Colombia

latitud: 11-32N, longitud: 072-56W, altitud: 4 m

Observación

El informe se hizo hace 10 horas y 46 minutos, a las 23:00 UTC
Viento 12 kt del noreste
Temperatura 27°C
Humedad 74%
Presión 1010 hPa
Visibilidad 10 km o más
Escasas nubes a una altura de 2000 ft

METAR: SKRH 202300Z 04012KT 9999 FEW020 27/22 A2982

Hora: 04:46 (09:46 UTC)


TAF: falta

Observaciones y pronósticos meteorológicos de más de 4000 aeropuertos (mensajes METAR y TAF).

Los puntos amarillos y rojos representan las estaciones disponibles.

Ponga el ratón en el punto deseado para ver el nombre de la estación.

Haga clic para ver las observaciones y los pronósticos meteorológicos.

Para cambiar el mapa : haga clic en los botones verdes con una cruz de color negro para hacer un zoom, en el botón verde con un guión para alejar o en las flechas verdes para mapas adyacentes.


METAR-TAF: